Flag for Brazil Weather past 2 weeks in Belo Horizonte, Minas Gerais, Brazil

Now
88 °F

Scattered clouds.


Feels Like: 86 °F
Forecast: 65 / 86 °F
Wind: 13 mph from East

Location: Belo Horizonte Airport

Current Time: Sep 17, 2014 at 3:38:23 PM

Latest Report: Sep 17, 2014 at 3:00 PM


Visibility: N/A

Pressure: 30.04 "Hg

Humidity: 31%

Dew point: 54 °F

Location of Belo HorizonteLocation

Historic Weather in Belo Horizonte — Graph

°F

Belo Horizonte temperature yesterday

Maximum temperature yesterday: 90 °F (at 2:00 PM)
Minimum temperature yesterday: 61 °F (at 5:00 AM)
Average temperature yesterday: 76 °F

Past Weeks' High & Low Weather Summary

 TemperatureHumidityPressure
High91 °F (Sep 2, 3:00 PM)88% (Sep 3, 8:00 AM)30.33 "Hg (Sep 3, 8:00 AM)
Low52 °F (Sep 7, 3:00 AM)15% (Sep 11, 3:00 PM)29.95 "Hg (Sep 2, 3:00 PM)
Average70 °F49%30.15 "Hg
* Reported Sep 2 2:00 PM — Sep 17 2:00 PM, Belo Horizonte, Weather by CustomWeather, © 2014

Note: Actual official high and low records may vary slightly from our data, if they occured in-between our weather recording intervals... More about our weather records

Advertising

Belo Horizonte weather history for previous 24 hours

 ConditionsComfort  
Time TempWeatherWind HumidityBarometerVisibility
2:00 PM
Sep 17
88 °FPassing clouds.6 mph25%30.07 "HgN/A
1:00 PM88 °FSunny.7 mph27%30.07 "Hg10 mi
12:00 PM86 °FSunny.10 mph29%30.09 "Hg10 mi
11:00 AM82 °FSunny.10 mph30%30.12 "Hg10 mi
10:00 AM79 °FSunny.6 mph39%30.15 "Hg10 mi
9:00 AM77 °FSunny.8 mph44%30.15 "Hg10 mi
8:00 AM73 °FSunny.10 mph50%30.15 "Hg10 mi
7:00 AM70 °FSunny.9 mph57%30.12 "Hg10 mi
6:00 AM68 °FSunny.8 mph60%30.09 "Hg10 mi
5:00 AM70 °FClear.14 mph57%30.07 "Hg10 mi
4:00 AM72 °FClear.9 mph57%30.04 "Hg10 mi
3:00 AM72 °FClear.10 mph53%30.04 "Hg10 mi
2:00 AM72 °FClear.8 mph57%30.07 "Hg10 mi
1:00 AM73 °FClear.8 mph53%30.07 "Hg10 mi
12:00 AM73 °FClear.6 mph50%30.07 "Hg10 mi
11:00 PM
Sep 16
73 °FClear.3 mph47%30.07 "Hg10 mi
10:00 PM77 °FClear.7 mph39%30.07 "Hg10 mi
9:00 PM79 °FClear.2 mph32%30.04 "Hg10 mi
8:00 PM82 °FClear.8 mph26%30.04 "Hg10 mi
7:00 PM86 °FClear.5 mph22%30.01 "Hg10 mi
6:00 PM86 °FPassing clouds.3 mph24%30.01 "HgN/A
5:00 PM90 °FScattered clouds.6 mph20%29.98 "HgN/A
4:00 PM90 °FSunny.7 mph20%29.98 "Hg10 mi
3:00 PM90 °FSunny.5 mph18%29.98 "Hg10 mi
Weather by CustomWeather, © 2014

See weather overviewHow to use our weather pages